sat.trackr.live / text

‹ back to catalog

STARLINK-31560

NORAD 59361 · 2024-060P

PAYLOAD ACTIVE UNKNOWN

§ Identity

Operator
Country
US
Launch date
2024-03-31
Launch site
AFETR
Launch vehicle
Mass (kg)
RCS (m²)

Purposes: comms

External: N2YO · Heavens-Above · Gunter

§ Orbital elements

Epoch: 2026-05-25T03:26:36.591648Z

Period
94.27 min
Inclination
43.0000°
Eccentricity
0.0001512
Mean motion
15.27575728 rev/d
Perigee alt
482.0 km
Apogee alt
484.1 km
Semi-major
6,861.2 km
B*
-1.4861e-4
RAAN
188.2361°
Arg perigee
270.8033°
Mean anomaly
89.2646°
Rev number
12,175

§ Raw data

STARLINK-315601 59361U 24060P   26145.14347907 -.00004349  00000+0 -14861-3 0  99932 59361  43.0000 188.2361 0001512 270.8033  89.2646 15.27575728121754

JSON: /api/v1/satellites/59361 · /tle

For live sub-satellite position, see the globe view (requires WebGL).

§ Visibility from observer

Set your observer location to see the next 7 days of passes ≥ 10°. The values pass through the URL so the page stays shareable.

No JS? Fill the form by hand. The geolocation button needs JavaScript.